Location: ????????
(56.1167°N, 38.6333°E)
Time: 10:09:31
(UTC+00:00)

Cosmos 1346 Rocket - Pass Details

Date: 16 February 2026
Orbit: 476 x 485 km, 81.2° (Epoch: 11 March)

Event Time Altitude Azimuth Distance (km) Brightness Sun altitude
Rises 02:17:49 0° 349° (N) 2,568 6.2 -21.6°
Reaches altitude 10° 02:20:02 10° 358° (N) 1,684 5.4 -21.3°
Maximum altitude 02:23:31 39° 68° (ENE) 754 4.0 -20.8°
Drops below altitude 10° 02:26:59 10° 139° (SE) 1,675 5.7 -20.3°
Sets 02:29:11 0° 147° (SSE) 2,553 6.6 -20.0°
